Location: Newark
(49.8969°N, 3.3422°E)
Time: 19:56:25
(UTC+00:00)

Vanguard 1 Rocket - Pass Details

Date: 28 January 2020
Orbit: 650 x 4226 km, 34.3° (Epoch: 17 February)

Event Time Altitude Azimuth Distance (km) Brightness Sun altitude
Rises 13:30:46 0° 265° (W) 5,125 11.6 18.9°
Reaches altitude 10° 13:34:03 10° 256° (WSW) 4,545 11.6 18.7°
Maximum altitude 13:45:31 33° 199° (SSW) 4,226 12.7 17.9°
Drops below altitude 10° 14:03:40 10° 146° (SSE) 7,131 12.4 16.5°
Sets 14:10:46 0° 139° (SE) 8,397 12.5 16.0°
